STARLINK-11605, 63134

Orbit data source: Space-Track

STARLINK-11605, 63134 is a payload satellite owned by SpaceX/Seattle (US) in LEO that was launched on Mon, 03 Mar 2025 UTC via an FALCON 9 launch vehicle from the Air Force Eastern Test Range (AFETR). Payload-class satellites include a variety of spacecraft equipped with specific instruments for various scientific and technological missions. These include communications satellites like Starlink; space stations such as the ISS; scientific satellites like the Hubble; Earth observation satellites from companies like Planet Labs, Umbra, and HawkEye 360; GPS; miniature CubeSats for education and research; and military/defense satellites.

Loading next visibility...
Identifier
63134, 2025-043C
Orbit
LEO
Country
Flag of USUS
Related business
Manufacturer
SpaceX/Seattle
Mission
Operational Commercial Communications
Bus & Motor
STARLINK V2MD, Unknown motor
Mass
960 kg wet, ~910 kg dry
Launch date (UTC)
2025-03-03 (2 years ago)
Launch vehicle
FALCON 9
Launch site
Air Force Eastern Test Range (AFETR)
Object type
Payload
Rocket body
Debris
Shape & HBR
Box + 2 Pan, 18.1 m
Radar Cross Section
36.964 m², Large (>1 m²)

Expand to show TLE details & history
Last TLE update: 10 hours ago

TLE from 10 hours ago
0 STARLINK-11605
1 63134U 25043C   26255.90121836  .00125725  00000-0  96748-3 0  9990
2 63134  43.0016 202.4467 0001739 256.4957 103.5717 15.70865927 88792
Epoch: 2026-09-12T21:37Z
TLE epoch observation values (Epoch: 2026-09-12T21:37:45.266Z)
Latitude
-0.00001°
Longitude
-113.89549°
Altitude
356.467 km
Speed
7.697 km/s
True Right ascension
13h 29m 47s
True Declination
0° 00' 00"
Sunlit
Object was in daylight at epoch
Visualization orbit readout
Latitude
Unknown
Longitude
Unknown
Altitude
Unknown
Speed
Unknown
Apparent Right ascension
Unknown
Apparent Declination
Unknown
Sunlit
N/A
Visualization observer readout
Local Sidereal Time
23:50:49
Azimuth
Unknown
Elevation
Unknown
Doppler factor
Unknown
Orbital elements
Apogee altitude
359.574 km
Perigee altitude
357.231 km
Semi-major axis
6,736.539 km
Eccentricity
0.00017
Inclination
43.0016°
RAAN
202.4467°
Arg. of periapsis
256.4957°
True anomaly
103.59107°
Mean anomaly
103.5717°
Eccentric anomaly
103.58139°
Mean motion
3.92544 °/min
Orbital period
91.71 mins
BSTAR
0.00096748
Loading maneuver chart data...
Computing Atmospheric mass density...
Loading historical data...
Loading historical data...
Loading historical data...
Loading historical data...
Loading historical data...
Loading historical data...
Loading historical data...

Documentation

Showing up to 5 results
|